WAT4855 KSEA-KLAX

Flight info

Callsign WAT4855
Flight time 2h 4m
Altitude 35000
Route SUMMA2 SUMMA JINMO Q7 JAGWA BURGL IRNMN2
Aircraft B738/M-SDE2E3FGHIRWXY/LB1

Departure

Time 2026-04-23 21:13
Airport Seattle–Tacoma International Airport (KSEA)

Arrival

Time 2026-04-23 23:18
Airport Los Angeles International Airport (KLAX)
Time Latitude Longitude Altitude Speed Heading
2026-04-23 20:36 47.44007 -122.29935 393 ft 0 kts 27°
2026-04-23 21:04 47.43993 -122.29947 393 ft 4 kts 41°
2026-04-23 21:04 47.43976 -122.29978 393 ft 4 kts 54°
2026-04-23 21:04 47.43974 -122.29997 393 ft 4 kts 327°
2026-04-23 21:05 47.43977 -122.30002 393 ft 1 kts 311°
2026-04-23 21:07 47.43991 -122.30025 393 ft 7 kts 310°
2026-04-23 21:07 47.44040 -122.30112 393 ft 14 kts 297°
2026-04-23 21:08 47.44023 -122.30255 393 ft 14 kts 242°
2026-04-23 21:08 47.43991 -122.30389 393 ft 14 kts 267°
2026-04-23 21:08 47.43991 -122.30528 393 ft 13 kts 270°
2026-04-23 21:08 47.44011 -122.30635 393 ft 9 kts 333°
2026-04-23 21:09 47.44079 -122.30637 393 ft 12 kts
2026-04-23 21:09 47.44188 -122.30636 393 ft 20 kts 360°
2026-04-23 21:09 47.44350 -122.30635 393 ft 27 kts
2026-04-23 21:09 47.44553 -122.30633 393 ft 30 kts
2026-04-23 21:10 47.44757 -122.30631 393 ft 29 kts
2026-04-23 21:10 47.44950 -122.30628 393 ft 27 kts
2026-04-23 21:10 47.45131 -122.30627 393 ft 25 kts 360°
2026-04-23 21:10 47.45300 -122.30625 393 ft 24 kts
2026-04-23 21:11 47.45462 -122.30623 393 ft 24 kts
2026-04-23 21:11 47.45649 -122.30623 393 ft 29 kts 360°
2026-04-23 21:11 47.45862 -122.30621 393 ft 31 kts
2026-04-23 21:11 47.46073 -122.30617 393 ft 29 kts
2026-04-23 21:12 47.46272 -122.30614 393 ft 28 kts
2026-04-23 21:12 47.46375 -122.30649 393 ft 11 kts 301°
2026-04-23 21:12 47.46368 -122.30760 393 ft 11 kts 252°
2026-04-23 21:12 47.46306 -122.30783 393 ft 10 kts 176°
2026-04-23 21:13 47.46137 -122.30778 393 ft 54 kts 179°
2026-04-23 21:13 47.45530 -122.30786 393 ft 118 kts 180°
2026-04-23 21:13 47.44535 -122.30800 505 ft 159 kts 182°
2026-04-23 21:13 47.43401 -122.30814 1068 ft 169 kts 181°
2026-04-23 21:14 47.42185 -122.30792 1712 ft 181 kts 182°
2026-04-23 21:14 47.40821 -122.30788 1973 ft 209 kts 181°
2026-04-23 21:14 47.39287 -122.30791 2216 ft 230 kts 181°
2026-04-23 21:14 47.37613 -122.30802 2573 ft 249 kts 181°
2026-04-23 21:15 47.35866 -122.30816 3351 ft 252 kts 181°
2026-04-23 21:15 47.34100 -122.30835 4123 ft 256 kts 181°
2026-04-23 21:15 47.32294 -122.30860 4817 ft 263 kts 182°
2026-04-23 21:15 47.30459 -122.30886 5591 ft 265 kts 182°
2026-04-23 21:16 47.28598 -122.30914 6293 ft 269 kts 182°
2026-04-23 21:16 47.27347 -122.30933 6737 ft 273 kts 181°
2026-04-23 21:16 47.24776 -122.30953 7596 ft 280 kts 177°
2026-04-23 21:16 47.23493 -122.30629 7967 ft 286 kts 165°
2026-04-23 21:17 47.21580 -122.29719 8594 ft 291 kts 161°
2026-04-23 21:17 47.19645 -122.28714 9202 ft 299 kts 160°
2026-04-23 21:17 47.17016 -122.27325 10050 ft 307 kts 160°
2026-04-23 21:17 47.14988 -122.26254 10654 ft 312 kts 160°
2026-04-23 21:18 47.13585 -122.25516 10920 ft 323 kts 161°
2026-04-23 21:18 47.11393 -122.24368 11082 ft 345 kts 161°
2026-04-23 21:18 47.09063 -122.23152 11296 ft 365 kts 161°
2026-04-23 21:18 47.06634 -122.21888 11775 ft 374 kts 161°
2026-04-23 21:19 47.04171 -122.20607 12427 ft 378 kts 161°
2026-04-23 21:19 47.01681 -122.19314 13095 ft 382 kts 161°
2026-04-23 21:19 46.99158 -122.18006 13745 ft 388 kts 162°
2026-04-23 21:19 46.96631 -122.16697 14402 ft 392 kts 162°
2026-04-23 21:20 46.94014 -122.15344 15033 ft 396 kts 162°
2026-04-23 21:20 46.91435 -122.14012 15677 ft 400 kts 162°
2026-04-23 21:20 46.88792 -122.12649 16304 ft 405 kts 162°
2026-04-23 21:20 46.86119 -122.11272 16913 ft 410 kts 162°
2026-04-23 21:21 46.83375 -122.10086 17449 ft 412 kts 165°
2026-04-23 21:21 46.80657 -122.08661 18067 ft 418 kts 159°
2026-04-23 21:21 46.77944 -122.07058 18639 ft 423 kts 160°
2026-04-23 21:21 46.75164 -122.05572 19152 ft 427 kts 162°
2026-04-23 21:22 46.72346 -122.04150 19718 ft 430 kts 162°
2026-04-23 21:22 46.69509 -122.02729 20312 ft 433 kts 162°
2026-04-23 21:22 46.66643 -122.01291 20784 ft 437 kts 162°
2026-04-23 21:22 46.63770 -121.99882 21514 ft 434 kts 167°
2026-04-23 21:23 46.60785 -121.99507 21974 ft 432 kts 191°
2026-04-23 21:23 46.57927 -122.00694 22458 ft 426 kts 208°
2026-04-23 21:23 46.55229 -122.02386 22986 ft 430 kts 207°
2026-04-23 21:23 46.52444 -122.04012 23479 ft 435 kts 206°
2026-04-23 21:24 46.49600 -122.05607 23863 ft 441 kts 205°
2026-04-23 21:24 46.46721 -122.07192 24285 ft 444 kts 205°
2026-04-23 21:24 46.43830 -122.08782 24753 ft 445 kts 205°
2026-04-23 21:24 46.40926 -122.10380 25183 ft 448 kts 204°
2026-04-23 21:25 46.37888 -122.11568 25534 ft 458 kts 192°
2026-04-23 21:25 46.34691 -122.11846 25945 ft 462 kts 180°
2026-04-23 21:25 46.31483 -122.11363 26415 ft 465 kts 172°
2026-04-23 21:25 46.28284 -122.10584 26760 ft 468 kts 171°
2026-04-23 21:26 46.25064 -122.09759 27085 ft 472 kts 171°
2026-04-23 21:26 46.21823 -122.08905 27417 ft 475 kts 171°
2026-04-23 21:26 46.18561 -122.08081 27802 ft 477 kts 171°
2026-04-23 21:26 46.15288 -122.07277 28188 ft 479 kts 171°
2026-04-23 21:27 46.11990 -122.06479 28538 ft 481 kts 171°
2026-04-23 21:27 46.08679 -122.05686 28863 ft 484 kts 171°
2026-04-23 21:27 46.05389 -122.04902 29189 ft 486 kts 171°
2026-04-23 21:27 46.02038 -122.04106 29524 ft 489 kts 171°
2026-04-23 21:28 45.98669 -122.03308 29866 ft 491 kts 171°
2026-04-23 21:28 45.95287 -122.02507 30187 ft 494 kts 171°
2026-04-23 21:28 45.91890 -122.01703 30428 ft 496 kts 171°
2026-04-23 21:28 45.88510 -122.00902 31013 ft 489 kts 171°
2026-04-23 21:29 45.85163 -122.00110 31487 ft 486 kts 171°
2026-04-23 21:29 45.81819 -121.99321 31741 ft 489 kts 170°
2026-04-23 21:29 45.78455 -121.98528 31967 ft 491 kts 170°
2026-04-23 21:29 45.75080 -121.97735 32262 ft 491 kts 170°
2026-04-23 21:30 45.71719 -121.96942 32701 ft 488 kts 170°
2026-04-23 21:30 45.68366 -121.96155 33012 ft 488 kts 170°
2026-04-23 21:30 45.65009 -121.95367 33275 ft 489 kts 170°
2026-04-23 21:30 45.61651 -121.94581 33591 ft 489 kts 170°
2026-04-23 21:31 45.58291 -121.93794 33958 ft 488 kts 169°
2026-04-23 21:31 45.54948 -121.93011 34311 ft 487 kts 169°
2026-04-23 21:31 45.51612 -121.92232 34650 ft 484 kts 170°
2026-04-23 21:31 45.48308 -121.91463 35081 ft 479 kts 170°
2026-04-23 21:32 45.45018 -121.90697 35227 ft 477 kts 170°
2026-04-23 21:32 45.41800 -121.89948 35222 ft 473 kts 170°
2026-04-23 21:32 45.35291 -121.88436 35241 ft 475 kts 170°
2026-04-23 21:33 45.28746 -121.86919 35246 ft 478 kts 170°
2026-04-23 21:33 45.22157 -121.85394 35219 ft 481 kts 170°
2026-04-23 21:34 45.15538 -121.83868 35223 ft 482 kts 170°
2026-04-23 21:34 45.08910 -121.82343 35223 ft 481 kts 170°
2026-04-23 21:35 45.02412 -121.80852 35200 ft 471 kts 170°
2026-04-23 21:35 44.95944 -121.79370 35196 ft 471 kts 170°
2026-04-23 21:36 44.86222 -121.77149 35204 ft 472 kts 171°
2026-04-23 21:37 44.79727 -121.75669 35176 ft 473 kts 171°
2026-04-23 21:37 44.73226 -121.74192 35182 ft 473 kts 171°
2026-04-23 21:38 44.66720 -121.72717 35166 ft 474 kts 171°
2026-04-23 21:38 44.60215 -121.71245 35158 ft 473 kts 171°
2026-04-23 21:39 44.53711 -121.69777 35146 ft 472 kts 170°
2026-04-23 21:39 44.47228 -121.68317 35153 ft 471 kts 171°
2026-04-23 21:40 44.40800 -121.66872 35149 ft 471 kts 171°
2026-04-23 21:40 44.34339 -121.65423 35163 ft 470 kts 171°
2026-04-23 21:41 44.27894 -121.63956 35155 ft 469 kts 170°
2026-04-23 21:41 44.21456 -121.62455 35153 ft 469 kts 170°
2026-04-23 21:42 44.15026 -121.60957 35147 ft 468 kts 170°
2026-04-23 21:42 44.08603 -121.59469 35134 ft 468 kts 170°
2026-04-23 21:43 44.02189 -121.57990 35136 ft 467 kts 170°
2026-04-23 21:43 43.95826 -121.56526 35134 ft 466 kts 170°
2026-04-23 21:44 43.89423 -121.55056 35137 ft 466 kts 170°
2026-04-23 21:44 43.83030 -121.53591 35148 ft 466 kts 170°
2026-04-23 21:45 43.76635 -121.52129 35139 ft 466 kts 170°
2026-04-23 21:45 43.70240 -121.50670 35120 ft 466 kts 170°
2026-04-23 21:46 43.63846 -121.49214 35137 ft 465 kts 170°
2026-04-23 21:46 43.57457 -121.47762 35124 ft 465 kts 170°
2026-04-23 21:47 43.51072 -121.46315 35129 ft 464 kts 170°
2026-04-23 21:47 43.44743 -121.44883 35122 ft 464 kts 170°
2026-04-23 21:48 43.38375 -121.43446 35117 ft 463 kts 170°
2026-04-23 21:48 43.32019 -121.42014 35114 ft 462 kts 170°
2026-04-23 21:49 43.25671 -121.40588 35124 ft 461 kts 170°
2026-04-23 21:49 43.19345 -121.39168 35114 ft 460 kts 170°
2026-04-23 21:50 43.13048 -121.37758 35121 ft 458 kts 170°
2026-04-23 21:50 43.06766 -121.36355 35122 ft 457 kts 171°
2026-04-23 21:51 43.00501 -121.34958 35116 ft 456 kts 171°
2026-04-23 21:51 42.94251 -121.33567 35123 ft 455 kts 171°
2026-04-23 21:52 42.88006 -121.32181 35121 ft 454 kts 171°
2026-04-23 21:52 42.81770 -121.30802 35131 ft 453 kts 171°
2026-04-23 21:53 42.75592 -121.29438 35129 ft 453 kts 171°
2026-04-23 21:53 42.69378 -121.28069 35132 ft 452 kts 171°
2026-04-23 21:54 42.63172 -121.26703 35138 ft 452 kts 171°
2026-04-23 21:54 42.56963 -121.25341 35130 ft 452 kts 171°
2026-04-23 21:55 42.50760 -121.23982 35139 ft 451 kts 171°
2026-04-23 21:55 42.44562 -121.22626 35145 ft 451 kts 171°
2026-04-23 21:56 42.38368 -121.21274 35142 ft 451 kts 171°
2026-04-23 21:56 42.32177 -121.19925 35143 ft 451 kts 171°
2026-04-23 21:57 42.26025 -121.18589 35146 ft 450 kts 171°
2026-04-23 21:57 42.19837 -121.17246 35142 ft 450 kts 171°
2026-04-23 21:58 42.13650 -121.15907 35153 ft 450 kts 171°
2026-04-23 21:58 42.07472 -121.14571 35153 ft 450 kts 172°
2026-04-23 21:59 42.01292 -121.13240 35139 ft 449 kts 172°
2026-04-23 21:59 41.95112 -121.11909 35135 ft 449 kts 172°
2026-04-23 22:00 41.85850 -121.09918 35128 ft 449 kts 173°
2026-04-23 22:00 41.79684 -121.08599 35129 ft 449 kts 173°
2026-04-23 22:01 41.73511 -121.07280 35122 ft 449 kts 173°
2026-04-23 22:01 41.67332 -121.05963 35124 ft 450 kts 173°
2026-04-23 22:02 41.61145 -121.04646 35115 ft 451 kts 174°
2026-04-23 22:02 41.54948 -121.03328 35119 ft 451 kts 174°
2026-04-23 22:03 41.48775 -121.02019 35120 ft 453 kts 175°
2026-04-23 22:03 41.42538 -121.00699 35124 ft 455 kts 175°
2026-04-23 22:04 41.36276 -120.99376 35106 ft 457 kts 175°
2026-04-23 22:04 41.29976 -120.98047 35105 ft 459 kts 175°
2026-04-23 22:05 41.23663 -120.96719 35089 ft 460 kts 175°
2026-04-23 22:05 41.17331 -120.95387 35083 ft 461 kts 176°
2026-04-23 22:06 41.10986 -120.94057 35103 ft 462 kts 176°
2026-04-23 22:06 41.04618 -120.92724 35097 ft 464 kts 176°
2026-04-23 22:07 40.98232 -120.91505 35095 ft 462 kts 180°
2026-04-23 22:07 40.91841 -120.90951 35109 ft 459 kts 183°
2026-04-23 22:08 40.85449 -120.90546 35103 ft 460 kts 183°
2026-04-23 22:08 40.79096 -120.90099 35084 ft 460 kts 183°
2026-04-23 22:09 40.72707 -120.89605 35097 ft 460 kts 182°
2026-04-23 22:09 40.66323 -120.89095 35103 ft 460 kts 182°
2026-04-23 22:10 40.59937 -120.88584 35082 ft 459 kts 183°
2026-04-23 22:10 40.54633 -120.88162 35104 ft 459 kts 183°
2026-04-23 22:11 40.48262 -120.87656 35118 ft 458 kts 183°
2026-04-23 22:11 40.40864 -120.87072 35110 ft 458 kts 183°
2026-04-23 22:12 40.35539 -120.86654 35119 ft 457 kts 183°
2026-04-23 22:12 40.29181 -120.86152 35105 ft 458 kts 183°
2026-04-23 22:13 40.22853 -120.85653 35090 ft 458 kts 183°
2026-04-23 22:13 40.16491 -120.85153 35079 ft 457 kts 183°
2026-04-23 22:14 40.10141 -120.84662 35068 ft 458 kts 184°
2026-04-23 22:14 40.03784 -120.84162 35069 ft 457 kts 184°
2026-04-23 22:15 39.97431 -120.83665 35076 ft 458 kts 184°
2026-04-23 22:15 39.91063 -120.83168 35075 ft 458 kts 184°
2026-04-23 22:16 39.84699 -120.82673 35075 ft 458 kts 184°
2026-04-23 22:16 39.78336 -120.82179 35058 ft 458 kts 184°
2026-04-23 22:17 39.71984 -120.81686 35081 ft 457 kts 184°
2026-04-23 22:17 39.65646 -120.81196 35077 ft 455 kts 184°
2026-04-23 22:18 39.59313 -120.80708 35093 ft 455 kts 184°
2026-04-23 22:18 39.52991 -120.80236 35081 ft 455 kts 184°
2026-04-23 22:19 39.46729 -120.79743 35070 ft 453 kts 184°
2026-04-23 22:19 39.40463 -120.79246 35078 ft 450 kts 184°
2026-04-23 22:20 39.34220 -120.78777 35129 ft 448 kts 184°
2026-04-23 22:20 39.28002 -120.78308 35145 ft 447 kts 184°
2026-04-23 22:21 39.21802 -120.77832 35156 ft 446 kts 184°
2026-04-23 22:21 39.15606 -120.77358 35162 ft 446 kts 184°
2026-04-23 22:22 39.09403 -120.76887 35128 ft 446 kts 184°
2026-04-23 22:22 39.03211 -120.76417 35121 ft 446 kts 184°
2026-04-23 22:23 38.97015 -120.75948 35101 ft 446 kts 184°
2026-04-23 22:23 38.90856 -120.75480 35101 ft 446 kts 184°
2026-04-23 22:24 38.84659 -120.75011 35093 ft 446 kts 184°
2026-04-23 22:24 38.78485 -120.74530 35133 ft 444 kts 184°
2026-04-23 22:25 38.72311 -120.74076 35108 ft 445 kts 185°
2026-04-23 22:25 38.66133 -120.73618 35102 ft 445 kts 185°
2026-04-23 22:26 38.59945 -120.73155 35112 ft 446 kts 185°
2026-04-23 22:26 38.53744 -120.72690 35109 ft 447 kts 185°
2026-04-23 22:27 38.47537 -120.72226 35108 ft 447 kts 185°
2026-04-23 22:27 38.41333 -120.71762 35109 ft 447 kts 185°
2026-04-23 22:28 38.35120 -120.71298 35108 ft 447 kts 185°
2026-04-23 22:28 38.28957 -120.70839 35100 ft 446 kts 185°
2026-04-23 22:29 38.22773 -120.70379 35093 ft 445 kts 185°
2026-04-23 22:29 38.16600 -120.69922 35087 ft 443 kts 186°
2026-04-23 22:30 38.10473 -120.69477 35079 ft 441 kts 185°
2026-04-23 22:30 38.04369 -120.69019 35103 ft 439 kts 185°
2026-04-23 22:31 37.98272 -120.68568 35100 ft 439 kts 185°
2026-04-23 22:31 37.92182 -120.68120 35098 ft 438 kts 185°
2026-04-23 22:32 37.86100 -120.67673 35086 ft 438 kts 185°
2026-04-23 22:32 37.80014 -120.67227 35091 ft 438 kts 185°
2026-04-23 22:33 37.73928 -120.66781 35060 ft 438 kts 185°
2026-04-23 22:33 37.67886 -120.66339 35082 ft 438 kts 185°
2026-04-23 22:34 37.61801 -120.65894 35087 ft 438 kts 185°
2026-04-23 22:34 37.55722 -120.65451 35086 ft 438 kts 185°
2026-04-23 22:35 37.49640 -120.65008 35081 ft 437 kts 185°
2026-04-23 22:35 37.43564 -120.64566 35086 ft 437 kts 185°
2026-04-23 22:36 37.37492 -120.64126 35084 ft 437 kts 185°
2026-04-23 22:36 37.31405 -120.63407 35072 ft 447 kts 175°
2026-04-23 22:37 37.25348 -120.61448 35083 ft 450 kts 173°
2026-04-23 22:37 37.19302 -120.59400 35084 ft 450 kts 173°
2026-04-23 22:38 37.13245 -120.57393 35065 ft 450 kts 174°
2026-04-23 22:38 37.07197 -120.55425 35078 ft 449 kts 174°
2026-04-23 22:39 37.01151 -120.53473 35089 ft 449 kts 174°
2026-04-23 22:39 36.95137 -120.51535 35069 ft 449 kts 174°
2026-04-23 22:40 36.89093 -120.49589 35091 ft 448 kts 174°
2026-04-23 22:41 36.80039 -120.46678 35092 ft 448 kts 174°
2026-04-23 22:41 36.74002 -120.44743 35085 ft 448 kts 174°
2026-04-23 22:42 36.67975 -120.42812 35092 ft 447 kts 174°
2026-04-23 22:42 36.61953 -120.40886 35095 ft 446 kts 174°
2026-04-23 22:43 36.55932 -120.38963 35104 ft 446 kts 174°
2026-04-23 22:43 36.49948 -120.37056 35096 ft 447 kts 174°
2026-04-23 22:44 36.43922 -120.35139 35094 ft 447 kts 174°
2026-04-23 22:44 36.37906 -120.33228 35100 ft 447 kts 174°
2026-04-23 22:45 36.31886 -120.31318 35084 ft 446 kts 174°
2026-04-23 22:45 36.25882 -120.29417 35092 ft 445 kts 174°
2026-04-23 22:46 36.19878 -120.27518 35086 ft 445 kts 174°
2026-04-23 22:46 36.13883 -120.25625 35087 ft 444 kts 174°
2026-04-23 22:47 36.07901 -120.23740 35079 ft 444 kts 174°
2026-04-23 22:47 36.01960 -120.21870 35095 ft 443 kts 174°
2026-04-23 22:48 35.95954 -120.19983 35074 ft 442 kts 174°
2026-04-23 22:48 35.90041 -120.18127 35079 ft 440 kts 174°
2026-04-23 22:49 35.84106 -120.16268 35079 ft 440 kts 174°
2026-04-23 22:49 35.78179 -120.14416 35075 ft 439 kts 174°
2026-04-23 22:50 35.72265 -120.12569 35074 ft 438 kts 174°
2026-04-23 22:50 35.66378 -120.10626 35075 ft 445 kts 166°
2026-04-23 22:51 35.60930 -120.06709 35077 ft 457 kts 155°
2026-04-23 22:51 35.55569 -120.02522 35065 ft 456 kts 156°
2026-04-23 22:52 35.50180 -119.98408 35066 ft 456 kts 156°
2026-04-23 22:52 35.44759 -119.94329 35064 ft 457 kts 156°
2026-04-23 22:53 35.39328 -119.90254 35042 ft 458 kts 156°
2026-04-23 22:53 35.33879 -119.86168 34665 ft 464 kts 156°
2026-04-23 22:53 35.31124 -119.84104 34153 ft 463 kts 156°
2026-04-23 22:54 35.28416 -119.82063 33527 ft 465 kts 154°
2026-04-23 22:54 35.25746 -119.79785 32884 ft 469 kts 150°
2026-04-23 22:54 35.23154 -119.77348 32250 ft 471 kts 148°
2026-04-23 22:54 35.20579 -119.74848 31590 ft 472 kts 147°
2026-04-23 22:55 35.18019 -119.72362 31130 ft 468 kts 148°
2026-04-23 22:55 35.15465 -119.69913 30686 ft 465 kts 148°
2026-04-23 22:55 35.12912 -119.67499 30233 ft 461 kts 148°
2026-04-23 22:55 35.10374 -119.65125 29721 ft 458 kts 148°
2026-04-23 22:56 35.07845 -119.62771 29221 ft 454 kts 148°
2026-04-23 22:56 35.05340 -119.60444 28752 ft 450 kts 148°
2026-04-23 22:56 35.02865 -119.58147 28284 ft 445 kts 148°
2026-04-23 22:56 35.00410 -119.55868 27830 ft 441 kts 148°
2026-04-23 22:57 34.97977 -119.53612 27373 ft 438 kts 148°
2026-04-23 22:57 34.95558 -119.51369 26920 ft 435 kts 148°
2026-04-23 22:57 34.93188 -119.49173 26469 ft 432 kts 148°
2026-04-23 22:57 34.90800 -119.46966 26032 ft 429 kts 148°
2026-04-23 22:58 34.88411 -119.44808 25601 ft 427 kts 149°
2026-04-23 22:58 34.86021 -119.42678 25127 ft 424 kts 148°
2026-04-23 22:58 34.83644 -119.40565 24693 ft 422 kts 149°
2026-04-23 22:58 34.81282 -119.38460 24267 ft 420 kts 148°
2026-04-23 22:59 34.78932 -119.36364 23818 ft 419 kts 148°
2026-04-23 22:59 34.76585 -119.34273 23319 ft 417 kts 148°
2026-04-23 22:59 34.74252 -119.32192 22836 ft 415 kts 148°
2026-04-23 22:59 34.71911 -119.30132 22295 ft 415 kts 149°
2026-04-23 23:00 34.69572 -119.28095 21805 ft 413 kts 149°
2026-04-23 23:00 34.67241 -119.26064 21301 ft 411 kts 149°
2026-04-23 23:00 34.64921 -119.24042 20836 ft 410 kts 149°
2026-04-23 23:00 34.62602 -119.22035 20347 ft 408 kts 149°
2026-04-23 23:01 34.60286 -119.20050 19835 ft 407 kts 149°
2026-04-23 23:01 34.57978 -119.18069 19395 ft 405 kts 148°
2026-04-23 23:01 34.55689 -119.16079 18917 ft 404 kts 148°
2026-04-23 23:01 34.53427 -119.14080 18524 ft 401 kts 148°
2026-04-23 23:02 34.51184 -119.12084 18109 ft 399 kts 148°
2026-04-23 23:02 34.48984 -119.10127 17682 ft 396 kts 148°
2026-04-23 23:02 34.46773 -119.08154 17254 ft 393 kts 148°
2026-04-23 23:02 34.44584 -119.06209 16879 ft 388 kts 148°
2026-04-23 23:03 34.42383 -119.04371 16528 ft 383 kts 149°
2026-04-23 23:03 34.40220 -119.02492 16141 ft 381 kts 148°
2026-04-23 23:03 34.38084 -119.00615 15769 ft 377 kts 148°
2026-04-23 23:03 34.35966 -118.98768 15404 ft 373 kts 148°
2026-04-23 23:04 34.34542 -118.97534 15181 ft 371 kts 148°
2026-04-23 23:04 34.32493 -118.95715 14840 ft 369 kts 146°
2026-04-23 23:04 34.30452 -118.93853 14467 ft 367 kts 146°
2026-04-23 23:04 34.28423 -118.91999 14124 ft 364 kts 146°
2026-04-23 23:05 34.26409 -118.90168 13767 ft 362 kts 146°
2026-04-23 23:05 34.24407 -118.88345 13381 ft 358 kts 146°
2026-04-23 23:05 34.22429 -118.86526 12989 ft 356 kts 145°
2026-04-23 23:05 34.20476 -118.84727 12809 ft 348 kts 145°
2026-04-23 23:06 34.18583 -118.82985 12731 ft 337 kts 145°
2026-04-23 23:06 34.16747 -118.81300 12636 ft 326 kts 145°
2026-04-23 23:06 34.15013 -118.79577 12478 ft 320 kts 141°
2026-04-23 23:06 34.13374 -118.77778 12175 ft 319 kts 139°
2026-04-23 23:07 34.11742 -118.75957 11781 ft 320 kts 140°
2026-04-23 23:07 34.10106 -118.74142 11484 ft 318 kts 139°
2026-04-23 23:07 34.08478 -118.72357 11257 ft 314 kts 140°
2026-04-23 23:07 34.06872 -118.70610 11015 ft 308 kts 140°
2026-04-23 23:08 34.05318 -118.68858 10731 ft 302 kts 140°
2026-04-23 23:08 34.03769 -118.67184 10449 ft 297 kts 133°
2026-04-23 23:08 34.02824 -118.65009 10043 ft 295 kts 102°
2026-04-23 23:08 34.02536 -118.62570 9505 ft 296 kts 95°
2026-04-23 23:09 34.02334 -118.60101 8962 ft 298 kts 95°
2026-04-23 23:09 34.02125 -118.57671 8755 ft 286 kts 95°
2026-04-23 23:09 34.01912 -118.55302 8379 ft 282 kts 95°
2026-04-23 23:09 34.01698 -118.52958 8190 ft 277 kts 95°
2026-04-23 23:10 34.01487 -118.50711 8061 ft 269 kts 94°
2026-04-23 23:10 34.01278 -118.48496 7940 ft 257 kts 95°
2026-04-23 23:10 34.01079 -118.46386 7705 ft 249 kts 94°
2026-04-23 23:10 34.01148 -118.44389 7497 ft 240 kts 74°
2026-04-23 23:11 34.01545 -118.42449 7330 ft 236 kts 75°
2026-04-23 23:11 34.01897 -118.40529 7151 ft 234 kts 76°
2026-04-23 23:11 34.02233 -118.38618 6936 ft 233 kts 76°
2026-04-23 23:11 34.02563 -118.36720 6767 ft 230 kts 76°
2026-04-23 23:12 34.02854 -118.34809 6468 ft 234 kts 81°
2026-04-23 23:12 34.03048 -118.32868 6245 ft 233 kts 82°
2026-04-23 23:12 34.03234 -118.30930 5985 ft 233 kts 82°
2026-04-23 23:12 34.03425 -118.28985 5722 ft 234 kts 82°
2026-04-23 23:13 34.03619 -118.27045 5501 ft 233 kts 82°
2026-04-23 23:13 34.03716 -118.25099 5250 ft 233 kts 97°
2026-04-23 23:13 34.03150 -118.23292 5027 ft 231 kts 125°
2026-04-23 23:13 34.01987 -118.21998 4833 ft 230 kts 151°
2026-04-23 23:14 34.00461 -118.21429 4548 ft 231 kts 176°
2026-04-23 23:14 33.98892 -118.21662 4353 ft 227 kts 201°
2026-04-23 23:14 33.97613 -118.22716 3975 ft 224 kts 236°
2026-04-23 23:14 33.97055 -118.24415 3642 ft 216 kts 258°
2026-04-23 23:15 33.96722 -118.26157 3172 ft 210 kts 258°
2026-04-23 23:15 33.96478 -118.27856 2687 ft 203 kts 261°
2026-04-23 23:15 33.96301 -118.29545 2110 ft 203 kts 262°
2026-04-23 23:15 33.96130 -118.31220 1639 ft 195 kts 262°
2026-04-23 23:16 33.95973 -118.32768 1395 ft 179 kts 261°
2026-04-23 23:16 33.95822 -118.34224 1108 ft 171 kts 262°
2026-04-23 23:16 33.95683 -118.35579 915 ft 157 kts 262°
2026-04-23 23:16 33.95560 -118.36824 701 ft 142 kts 259°
2026-04-23 23:17 33.95436 -118.37946 499 ft 132 kts 264°
2026-04-23 23:17 33.95322 -118.39063 338 ft 135 kts 263°
2026-04-23 23:17 33.95224 -118.40137 161 ft 128 kts 261°
2026-04-23 23:17 33.95115 -118.41111 122 ft 99 kts 263°
2026-04-23 23:18 33.95056 -118.41679 125 ft 38 kts 259°
2026-04-23 23:18 33.94996 -118.41829 123 ft 16 kts 235°
2026-04-23 23:18 33.94938 -118.41926 124 ft 12 kts 233°
2026-04-23 23:18 33.94909 -118.41973 124 ft 6 kts 233°
2026-04-23 23:19 33.94878 -118.42022 122 ft 10 kts 232°
2026-04-23 23:19 33.94823 -118.42111 123 ft 16 kts 233°
2026-04-23 23:19 33.94747 -118.42233 125 ft 18 kts 233°
2026-04-23 23:19 33.94686 -118.42236 124 ft 11 kts 95°
2026-04-23 23:20 33.94694 -118.42125 123 ft 17 kts 82°
2026-04-23 23:20 33.94711 -118.41972 125 ft 19 kts 83°
2026-04-23 23:20 33.94727 -118.41810 124 ft 21 kts 83°
2026-04-23 23:20 33.94745 -118.41635 125 ft 23 kts 82°
2026-04-23 23:21 33.94773 -118.41419 125 ft 27 kts 72°
2026-04-23 23:21 33.94803 -118.41208 121 ft 25 kts 83°
2026-04-23 23:21 33.94823 -118.41009 125 ft 22 kts 82°
2026-04-23 23:21 33.94810 -118.40890 120 ft 11 kts 154°
2026-04-23 23:22 33.94741 -118.40905 125 ft 11 kts 207°
2026-04-23 23:22 33.94665 -118.40908 122 ft 12 kts 173°
2026-04-23 23:22 33.94636 -118.40876 121 ft 6 kts 88°
2026-04-23 23:22 33.94637 -118.40841 124 ft 0 kts 85°